Main page
METAR-TAF:

METAR-TAF

Airports :

RAF Kinloss

Kinloss, Scotland

latitude: 57-39N, longitude: 003-34W, elevation: 7 m

Current weather observation

The report was made 59 minutes ago, at 16:50 UTC
Wind 5 kt from the South/Southwest
Temperature 13°C
Humidity 62%
Pressure 1008 hPa
Visibility 10 km or more

METAR: EGQK 151650Z AUTO 20005KT 9999 FEW039/// 13/06 Q1008

Time: 17:49 (17:49 UTC)


TAF: missing

Weather observations and forecasts of more than 4000 airports (METAR and TAF reports).

The available stations are represented by yellow and red dots on the map.

Hover mouse over dot to see the name of the station.

Then click to see weather observations and forecasts.

To change the map : click on the green buttons with a black cross to zoom in, on the green button with a dash to zoom out, or on the green arrows for adjacent maps.


METAR-TAF: